Location: Czernidla
(52.0901°N, 21.1891°E)
Time: 09:35:30
(UTC+00:00)

Daily predictions for brighter satellites

Satellite Brightness Start Highest point End
(mag) Time Altitude Azimuth Time Altitude Azimuth Time Altitude Azimuth
STARLINK-1113 3.8 19:24:47 10° WNW 19:28:53 60° SSW 19:32:58 10° SE
STARLINK-1239 3.7 19:26:39 10° SW 19:30:43 59° SSE 19:34:48 10° ENE
NOSS 8 (E) 4.5 19:28:02 10° SSW 19:31:03 43° SE 19:34:00 10° NE
USA 215 3.9 19:24:41 10° E 19:31:07 59° N 19:37:32 10° WNW
Meteor 1-15 Rocket 4.4 19:26:28 10° N 19:32:27 76° ENE 19:38:21 10° SSE
STARLINK-1201 3.8 19:29:13 10° W 19:33:22 81° N 19:37:33 10° E
CENTAUR R/B 3.6 19:26:04 10° NW 19:33:35 58° NNE 19:42:05 10° ESE
Aureole 2 Rocket 2.7 19:30:47 10° S 19:33:40 36° ESE 19:36:26 10° NE
STARLINK-1119 3.9 19:29:48 10° WNW 19:33:52 57° SSW 19:37:57 10° SE
NOSS 2-2 (D) 4.4 19:31:17 10° S 19:34:08 22° ESE 19:37:15 10° ENE
Cosmos 1437 Rocket 2.7 19:31:43 10° S 19:35:28 67° E 19:39:18 10° NNE
STARLINK-1240 3.6 19:31:35 10° WSW 19:35:41 62° SSE 19:39:47 10° ENE
ATLAS 3B R/B 3.9 19:30:25 10° NW 19:36:40 39° NNE 19:43:04 10° E
Lacrosse 5 3.5 19:33:27 10° WNW 19:37:30 24° SW 19:41:31 10° S
STARLINK-1206 3.8 19:34:13 10° W 19:38:22 80° N 19:42:32 10° E
NOSS 3-2 (C) 4.4 19:31:36 10° NW 19:38:43 63° NE 19:46:52 10° ESE
STARLINK-1114 3.9 19:34:45 10° WNW 19:38:49 55° SSW 19:42:52 10° SE
Cosmos 304 Rocket 4.0 19:34:13 10° S 19:38:50 52° ESE 19:43:31 10° NNE
Cosmos 1378 4.2 19:35:44 10° SSE 19:38:57 28° E 19:42:10 10° NNE
STARLINK-1203 3.6 19:36:09 10° WSW 19:40:19 65° SSE 19:44:30 10° ENE
STARLINK-1216 3.6 19:36:32 10° WSW 19:40:38 65° SSE 19:44:45 10° ENE
ISS -1.3 19:39:35 10° WSW 19:41:04 12° SW 19:42:34 10° SSW
CZ-2C R/B 3.7 19:35:43 10° N 19:41:09 52° WNW 19:46:35 10° SW
STARLINK-1205 3.8 19:39:11 10° W 19:43:20 79° N 19:47:30 10° E
STARLINK-1130 (DARKSAT) 4.0 19:39:45 10° WNW 19:43:47 52° SSW 19:47:49 10° SE
STARLINK-1237 3.6 19:41:29 10° WSW 19:45:37 68° SSE 19:49:44 10° ENE
STARLINK-1218 3.8 19:44:11 10° W 19:48:20 79° N 19:52:30 10° E
STARLINK-1084 4.0 19:44:44 10° WNW 19:48:45 49° SSW 19:52:45 10° SE
Cosmos 1674 Rocket 3.5 19:44:35 10° S 19:48:58 81° E 19:53:25 10° NNE
Meteor 2-4 Rocket 4.5 19:44:08 10° SSW 19:49:21 53° WNW 19:54:38 10° N
STARLINK-1202 3.6 19:46:27 10° WSW 19:50:35 71° SSE 19:54:43 10° ENE
NOSS 2-2 (E) 3.7 19:47:53 10° SSW 19:51:15 38° SE 19:55:07 10° NE
Cosmos 1378 Rocket 3.6 19:47:31 10° S 19:51:54 68° E 19:56:15 10° NNE
EXPRESS MD2 4.1 19:49:15 10° SW 19:52:23 37° SE 19:58:05 10° E
SL-27 R/B 3.5 19:49:16 10° N 19:52:38 35° ENE 19:55:55 10° SE
STARLINK-1254 3.8 19:49:10 10° W 19:53:20 78° N 19:57:29 10° E
Cosmos 1766 3.6 19:49:41 10° N 19:53:36 52° ENE 19:57:24 11° SSE
STARLINK-1098 4.1 19:49:44 10° WNW 19:53:42 46° SSW 19:57:32 11° SE
Cosmos 2297 3.7 19:50:33 10° SSW 19:56:10 65° ESE 20:01:51 10° NE
Cosmos 1943 Rocket 2.9 19:51:45 10° SSE 19:56:39 33° ESE 20:01:36 10° NE
Cosmos 1900 4.4 19:52:02 10° NW 19:57:05 84° SW 20:01:59 11° SE
STARLINK-1231 3.8 19:54:08 10° W 19:58:18 77° N 20:02:27 10° E
STARLINK-1123 4.2 19:54:42 10° WNW 19:58:39 44° SSW 20:02:19 12° SE
Cosmos 2082 Rocket 3.6 19:54:13 10° NW 19:59:16 33° WSW 20:04:17 10° SSW
IGS 5A 4.1 19:56:25 10° S 20:00:29 55° W 20:04:36 10° NNW
STARLINK-1246 3.5 19:56:24 10° WSW 20:00:33 77° SSE 20:04:42 10° ENE
SeaSat 1 4.4 20:01:22 10° E 20:02:48 11° E 20:04:15 10° ESE
Cosmos 1452 Rocket 4.2 19:57:37 10° SW 20:02:51 61° WNW 20:08:07 10° NNE
Cosmos 332 Rocket 4.2 19:58:10 10° SSW 20:03:04 71° WNW 20:07:59 10° NNE
BREEZE-M DEB 3.8 20:00:52 10° SSW 20:03:12 25° SE 20:07:55 10° E
STARLINK-1232 3.8 19:59:09 10° W 20:03:18 77° N 20:07:27 10° E
Landsat 7 4.4 19:58:49 10° S 20:03:30 56° W 20:08:13 10° NNW
STARLINK-1097 4.3 19:59:43 10° WNW 20:03:38 41° SSW 20:07:07 12° SE
STARLINK-1224 3.5 20:01:22 10° WSW 20:05:30 79° SSE 20:09:40 10° ENE
Meteor 1-23 Rocket 4.3 20:01:36 10° S 20:07:17 87° ESE 20:12:57 10° NNE
STARLINK-1208 3.8 20:04:07 10° W 20:08:16 77° N 20:12:26 10° E
STARLINK-1099 4.3 20:04:42 10° W 20:08:35 39° SSW 20:11:54 13° SE
SAR-Lupe-2 3.9 20:06:01 10° N 20:09:36 68° WNW 20:13:11 10° SSW
Cosmos 1461 2.9 20:05:25 10° SW 20:09:37 89° SE 20:14:05 10° NE
STARLINK-1225 3.6 20:06:21 10° WSW 20:10:31 82° SSE 20:14:40 10° ENE
Cosmos 1975 Rocket 3.7 20:07:29 11° SSE 20:11:23 40° E 20:15:31 10° NNE
Cosmos 2369 Rocket 3.0 20:07:36 10° SSE 20:12:34 32° ESE 20:17:32 10° NE
STARLINK-1271 3.8 20:09:08 10° W 20:13:17 77° N 20:17:27 10° E
STARLINK-1104 4.4 20:09:42 10° W 20:13:32 37° SSW 20:16:40 14° SSE
STARLINK-1212 2.8 20:12:04 10° WNW 20:15:12 88° NNE 20:18:19 10° ESE
STARLINK-1230 3.6 20:11:19 10° WSW 20:15:28 85° SSE 20:19:38 10° ENE
STARLINK-1105 2.8 20:12:33 10° WNW 20:15:40 88° NNE 20:18:47 10° ESE
NOSS 2-2 (C) 3.3 20:12:17 10° SSW 20:15:46 51° SE 20:19:46 10° NE
STARLINK-1247 2.8 20:13:25 10° WNW 20:16:32 88° NNW 20:19:41 10° ESE
STARLINK-1227 2.8 20:13:55 10° WNW 20:17:02 89° N 20:20:09 10° ESE
STARLINK-1226 2.8 20:14:46 10° WNW 20:17:54 89° NE 20:21:01 10° ESE
STARLINK-1154 3.8 20:14:07 10° W 20:18:16 77° N 20:22:26 10° E
STARLINK-1215 2.8 20:15:40 10° WNW 20:18:48 90° NNW 20:21:56 10° ESE
SPOT 5 3.2 20:14:18 10° S 20:19:31 76° WSW 20:24:56 10° NNW
ATLAS 2AS CENTAUR R/B 3.9 20:13:27 10° SSE 20:19:57 28° ESE 20:26:26 10° ENE
NOSS 3-2 (A) 4.1 20:12:55 10° NW 20:20:15 75° SW 20:27:48 13° SSE
STARLINK-1243 3.6 20:16:18 10° WSW 20:20:28 87° SSE 20:24:37 10° ENE
STARLINK-1217 2.8 20:17:29 10° WNW 20:20:37 89° SSW 20:23:45 10° ESE
STARLINK-1229 2.8 20:18:23 10° WNW 20:21:32 89° SSW 20:24:40 10° ESE
Meteor 1-22 Rocket 4.3 20:15:34 10° NNW 20:21:32 88° ENE 20:26:47 13° SSE
Cosmos 2026 Rocket 4.3 20:15:52 11° SSE 20:21:45 52° E 20:27:54 10° NNE
STARLINK-1270 2.8 20:19:17 10° WNW 20:22:25 88° SSW 20:25:34 10° ESE
STARLINK-1197 3.8 20:19:04 10° W 20:23:14 77° N 20:27:24 10° E
ATLAS CENTAUR R/B 3.5 20:23:28 10° ESE 20:23:56 10° ESE 20:24:42 10° E
STARLINK-1189 2.8 20:21:05 10° WNW 20:24:13 87° SSW 20:27:21 10° ESE
ERS-1 Rocket 3.4 20:19:48 10° S 20:24:46 59° WSW 20:29:47 10° NNW
STARLINK-1188 2.8 20:22:00 10° WNW 20:25:08 86° S 20:28:14 10° ESE
STARLINK-1236 3.6 20:21:17 10° WSW 20:25:26 89° SSE 20:29:35 10° ENE
STARLINK-1187 2.7 20:23:05 10° WNW 20:26:11 82° SSW 20:29:05 11° ESE
STARLINK-1191 2.8 20:24:26 10° WNW 20:27:34 85° S 20:30:32 11° ESE
STARLINK-1198 3.8 20:24:03 10° W 20:28:13 78° N 20:32:23 10° E
STARLINK-1221 2.8 20:25:24 10° WNW 20:28:31 84° SSW 20:31:27 11° ESE
Cosmos 1025 Rocket 4.5 20:26:06 14° SE 20:28:41 23° E 20:32:04 10° NE
STARLINK-1222 2.8 20:26:14 10° WNW 20:29:21 84° SSW 20:32:16 11° ESE
Okean 2 3.4 20:25:56 12° S 20:29:43 66° E 20:33:52 10° NNE
STARLINK-1214 2.8 20:27:08 10° WNW 20:30:15 83° SSW 20:33:08 12° ESE
Cosmos 1066 Rocket 4.5 20:25:06 10° SSW 20:30:27 66° WNW 20:35:49 10° N
USA 238 DEB 4.0 20:25:01 10° NW 20:32:06 66° SW 20:38:25 15° SSE
Cosmos 1953 3.9 20:28:54 10° NNE 20:32:10 23° ENE 20:35:00 12° ESE
USA 238 4.0 20:25:06 10° NW 20:32:12 66° SW 20:38:32 15° SSE
Okean 1 Rocket 4.3 20:29:00 10° NNW 20:33:08 38° W 20:37:14 10° SSW
STARLINK-1199 3.7 20:29:04 10° W 20:33:13 79° N 20:37:23 10° E
Cosmos 968 Rocket 3.7 20:28:11 10° NNW 20:33:22 65° ENE 20:37:31 15° SE
Cosmos 1805 3.9 20:29:43 10° NNW 20:33:33 51° W 20:37:07 11° S
Cosmos 1470 3.3 20:30:03 10° N 20:33:49 46° ENE 20:36:30 17° SE
STARLINK-1228 3.1 20:31:12 10° WNW 20:34:42 72° SSW 20:37:42 13° ESE
Resurs 01 Rocket 4.3 20:33:16 10° WSW 20:35:23 13° W 20:37:31 10° WNW
STARLINK-1269 3.6 20:31:14 10° WSW 20:35:24 87° NNW 20:39:34 10° ENE
Cosmos 2278 Rocket 4.3 20:31:24 10° WSW 20:36:25 31° NW 20:41:28 10° NNE
Nadezhda 4 Rocket 4.3 20:30:47 10° SSW 20:36:52 67° WNW 20:43:00 10° N
STARLINK-1235 2.9 20:34:49 10° WNW 20:38:03 70° SSW 20:40:36 15° ESE
STARLINK-1210 3.7 20:34:02 10° W 20:38:12 79° N 20:42:22 10° E
Cosmos 1455 Rocket 3.0 20:34:35 10° N 20:38:58 83° ENE 20:42:18 17° SSE
STARLINK-1200 3.6 20:36:12 10° W 20:40:22 85° N 20:44:33 10° E
STARLINK-1219 3.7 20:39:01 10° W 20:43:10 80° N 20:47:20 10° E
STARLINK-1192 3.7 20:41:12 10° W 20:45:22 83° N 20:49:32 10° E
Cosmos 1758 3.6 20:42:55 10° N 20:46:56 56° ENE 20:49:40 19° SSE
ATLAS CENTAUR R/B 2.9 20:45:47 10° NW 20:47:16 20° N 20:48:57 10° ENE
STARLINK-1211 3.7 20:44:01 10° W 20:48:11 82° N 20:52:20 10° E
Terra 2.3 20:44:22 13° S 20:48:28 56° W 20:53:10 10° NNW
SL-4 R/B 3.2 20:45:44 10° SSW 20:49:52 29° SE 20:54:03 10° E
STARLINK-1244 3.7 20:46:11 10° W 20:50:20 82° N 20:54:31 10° E
SL-4 R/B 3.2 20:50:29 10° E 20:51:20 12° ENE 20:52:11 10° NE
Cosmos 1842 3.2 20:48:51 15° S 20:52:02 86° E 20:55:57 10° NNE
STARLINK-1245 3.7 20:48:59 10° W 20:53:09 83° N 20:57:19 10° E
Cosmos 1503 Rocket 4.2 20:47:51 10° NNW 20:53:10 70° ENE 20:57:15 17° SE
ERBS 4.0 20:51:31 10° WNW 20:54:37 35° N 20:57:43 10° ENE
STARLINK-1138 3.7 20:51:10 10° W 20:55:20 81° N 20:59:30 10° E
STARLINK-1234 3.1 20:52:36 10° WNW 20:55:50 55° SSW 20:57:44 22° SE
STARLINK-1233 3.6 20:53:56 10° W 20:58:06 85° N 21:02:16 10° E
STARLINK-1143 3.7 20:56:08 10° W 21:00:18 80° N 21:04:28 10° E
STARLINK-1209 3.2 20:58:34 10° W 21:01:47 50° SSW 21:03:26 24° SE
Cosmos 2263 4.4 20:57:25 14° S 21:02:06 53° ESE 21:07:33 10° NE
STARLINK-1204 3.6 20:58:56 10° WNW 21:03:06 86° NNE 21:07:16 10° E
SJ 16-02 4.2 21:03:03 10° NNE 21:03:46 10° NE 21:04:29 10° NE
STARLINK-1241 3.7 21:01:09 10° W 21:05:19 79° N 21:09:29 10° E
STARLINK-1238 3.6 21:03:56 10° WNW 21:08:06 88° NNE 21:12:16 10° ESE
STARLINK-1239 3.7 21:06:08 10° W 21:10:18 78° N 21:14:28 10° E
Cosmos 1536 Rocket 3.9 21:08:36 22° SSE 21:11:10 49° E 21:15:24 10° NNE
Cosmos 1354 Rocket 4.0 21:07:08 10° NNW 21:12:29 86° ENE 21:16:12 20° SSE
Meteor 1-21 4.2 21:07:50 14° S 21:12:41 87° ESE 21:18:20 10° NNE
STARLINK-1201 3.6 21:08:55 10° WNW 21:13:05 90° SSE 21:17:14 10° ESE
COSMOS 2455 3.7 21:09:44 19° SSE 21:13:05 32° ESE 21:18:20 10° NE
JB-3 4.4 21:09:18 10° NNE 21:13:30 85° WNW 21:16:37 17° SSW
USA 215 3.3 21:07:21 10° ESE 21:13:56 85° NNE 21:20:31 10° WNW
Cosmos 1486 Rocket 4.5 21:09:25 10° NNW 21:14:34 52° WSW 21:18:13 19° S
STARLINK-1240 3.7 21:11:06 10° W 21:15:15 78° N 21:19:26 10° E
Cosmos 1833 4.2 21:09:38 10° NNW 21:15:17 76° WSW 21:19:13 20° SSE
Cosmos 1544 Rocket 3.9 21:11:26 10° NNW 21:15:43 60° W 21:18:39 19° S
Cosmos 1302 Rocket 4.3 21:11:20 10° SSW 21:16:38 71° WNW 21:21:57 10° NNE
Cosmos 1271 Rocket 2.7 21:14:22 22° S 21:16:46 72° E 21:20:42 10° NNE
Spot 4 3.9 21:14:22 21° SSE 21:17:39 81° ENE 21:22:32 10° NNW
Cosmos 2297 Rocket 4.0 21:13:05 10° NNW 21:17:47 26° NE 21:22:28 10° E
Cosmos 1242 Rocket 2.6 21:15:26 19° SSW 21:17:59 77° WNW 21:21:42 10° N
STARLINK-1206 3.5 21:13:54 10° WNW 21:18:05 88° S 21:22:14 10° ESE
STARLINK-1203 3.8 21:15:56 10° W 21:20:09 77° N 21:24:23 10° E
STARLINK-1216 3.8 21:16:04 10° W 21:20:14 77° N 21:24:24 10° E
STARLINK-60 3.4 21:20:10 22° SSW 21:21:42 37° SSE 21:24:41 10° E
STARLINK-1205 3.5 21:18:52 10° WNW 21:23:02 85° SSW 21:27:12 10° ESE
NOSS 2-2 (D) 4.2 21:20:43 10° WSW 21:24:19 50° NW 21:28:36 10° NE
CENTAUR R/B 3.4 21:16:51 10° NW 21:24:39 60° SW 21:31:08 19° SSE
STARLINK-1237 3.8 21:21:04 10° W 21:25:14 77° N 21:29:24 10° E
Lacrosse 4 Rocket 4.2 21:24:08 10° NNW 21:26:50 16° NNE 21:29:28 10° ENE
Cosmos 1707 2.7 21:24:35 24° S 21:26:50 77° E 21:30:43 10° NNE
SL-27 R/B 4.3 21:24:42 10° NW 21:27:34 23° WSW 21:29:28 15° SW
Helios 1A 4.3 21:24:58 15° ESE 21:27:52 32° ENE 21:31:35 10° N
STARLINK-1218 3.5 21:23:52 10° WNW 21:28:02 83° SSW 21:32:11 10° ESE
ATLAS 3B R/B 2.7 21:21:18 10° NW 21:28:05 89° SW 21:33:56 16° SE
NOSS 3-2 (C) 4.4 21:22:37 10° NW 21:29:47 50° WSW 21:35:37 19° S
STARLINK-1202 3.8 21:26:03 10° W 21:30:13 77° N 21:34:23 10° E
Cosmos 1726 2.1 21:27:14 10° N 21:30:58 78° E 21:32:50 28° SSE
Meteor 1-16 Rocket 4.2 21:26:43 10° N 21:32:17 75° ENE 21:35:51 22° SSE
STARLINK-1254 3.5 21:28:51 10° WNW 21:33:00 80° SSW 21:37:06 10° ESE
ALOS 2 2.9 21:30:24 22° SE 21:33:06 59° ENE 21:37:26 10° N
Cosmos 1867 3.8 21:29:21 10° NW 21:34:45 59° SW 21:38:07 23° SSE
COSMOS 2487 2.3 21:32:00 10° NNW 21:35:29 88° WSW 21:37:03 31° SSE
NOSS 5 (C) 4.3 21:34:12 10° NW 21:37:17 89° SSW 21:39:14 25° SE
STARLINK-1231 3.5 21:33:49 10° WNW 21:37:58 77° SSW 21:41:52 11° ESE
Cosmos 1992 Rocket 3.9 21:36:08 18° SSW 21:40:06 81° ESE 21:45:21 10° NNE
Cosmos 1943 Rocket 2.9 21:34:44 10° SW 21:40:11 53° NW 21:45:43 10° NNE
STARLINK-1246 3.7 21:36:03 10° W 21:40:12 77° N 21:44:22 10° E
SeaSat 1 2.5 21:36:19 10° NE 21:41:14 63° ESE 21:44:34 20° SSW
NOSS 3-4 (A) 3.5 21:36:32 13° SSW 21:41:43 61° SE 21:48:02 10° NE
NOSS 3-4 (C) 3.5 21:36:40 14° SSW 21:41:49 60° SE 21:48:08 10° NE
Cosmos 1606 Rocket 4.1 21:37:46 10° N 21:41:59 49° ENE 21:44:29 22° SE
EO 1 Del DPAF 3.2 21:38:25 10° NNE 21:42:13 78° WNW 21:44:29 23° SSW
STARLINK-1232 3.5 21:38:49 10° WNW 21:42:57 75° SSW 21:46:40 13° ESE
STARLINK-1224 3.7 21:41:01 10° W 21:45:11 78° N 21:49:21 10° E
Cosmos 2315 Rocket 4.1 21:41:40 10° N 21:47:53 71° ENE 21:52:08 21° SSE
STARLINK-1208 3.5 21:43:46 10° WNW 21:47:54 72° SSW 21:51:25 14° ESE
STARLINK-1225 3.7 21:46:01 10° W 21:50:11 78° N 21:54:21 10° E
Meteor 2-10 4.2 21:45:40 10° NNW 21:50:38 60° W 21:53:43 23° S
STARLINK-1212 3.8 21:48:02 10° W 21:50:46 30° SSW 21:50:46 30° SSW
STARLINK-1105 3.8 21:48:31 10° W 21:51:13 29° SW 21:51:13 29° SW
STARLINK-29 3.5 21:51:41 35° SE 21:51:41 35° SE 21:54:33 10° E
STARLINK-1247 3.8 21:49:23 10° W 21:52:06 29° SW 21:52:06 29° SW
STARLINK-1227 3.9 21:49:53 10° W 21:52:32 29° SW 21:52:32 29° SW
STARLINK-1271 3.5 21:48:47 10° WNW 21:52:55 69° SSW 21:56:14 15° ESE
Cosmos 292 Rocket 4.4 21:48:29 10° SW 21:53:14 54° WNW 21:58:02 10° NNE
STARLINK-1226 3.9 21:50:45 10° W 21:53:24 29° SW 21:53:24 29° SW
BREEZE-M DEB (TANK) 2.9 21:44:12 10° WSW 21:53:40 65° S 21:56:43 10° E
S3M 4.3 21:47:47 10° NNW 21:53:51 60° W 21:58:10 20° SSW
BREEZE-M DEB (TANK) 3.2 21:50:38 10° W 21:54:04 47° SSW 21:58:23 10° ESE
STARLINK-1215 3.9 21:51:39 10° W 21:54:16 28° SW 21:54:16 28° SW
Cosmos 2227 Rocket 3.6 21:49:47 10° NNW 21:55:01 35° NE 22:00:12 10° ESE
RESURS DK-1 3.5 21:53:56 24° SE 21:55:09 28° ESE 21:58:42 10° NE
STARLINK-1230 3.7 21:50:59 10° W 21:55:10 79° N 21:59:20 10° E
STARLINK-1217 4.0 21:53:28 10° W 21:56:00 27° SW 21:56:00 27° SW
Cosmos 2369 Rocket 2.9 21:50:48 10° SW 21:56:22 55° NW 22:01:56 10° NNE
STARLINK-1229 4.0 21:54:24 10° W 21:56:54 27° SW 21:56:54 27° SW
STARLINK-1154 3.5 21:53:46 10° WNW 21:57:53 66° SSW 22:01:00 17° ESE
STARLINK-1270 4.0 21:55:17 10° W 21:57:45 27° SW 21:57:45 27° SW
STARLINK-1189 4.1 21:57:06 10° W 21:59:29 26° SW 21:59:29 26° SW
STARLINK-1243 3.7 21:55:59 10° W 22:00:10 80° N 22:04:20 10° E
Cosmos 1340 Rocket 3.2 21:56:31 10° NNW 22:00:31 55° W 22:02:31 27° SSW
STARLINK-1188 4.1 21:58:01 10° W 22:00:22 25° SW 22:00:22 25° SW
STARLINK-1187 4.4 21:59:10 10° W 22:01:14 22° SW 22:01:14 22° SW
ATLAS CENTAUR R/B 1.4 21:59:35 23° SSW 22:02:09 64° SE 22:06:12 10° NE
Aureole 3 2.8 21:59:07 10° NNW 22:02:24 68° W 22:03:24 38° SSW
STARLINK-1197 3.6 21:58:43 10° WNW 22:02:50 63° SSW 22:05:46 18° SE
Thor Agena Rocket 4.0 21:57:37 10° N 22:02:51 60° WNW 22:07:11 15° SW
Cosmos 1626 3.8 22:01:28 18° ESE 22:02:55 23° E 22:05:53 10° NE
STARLINK-1191 4.2 22:00:29 10° W 22:02:39 24° SW 22:02:39 24° SW
STARLINK-1221 4.3 22:01:26 10° W 22:03:35 24° SW 22:03:35 24° SW
STARLINK-1222 4.3 22:02:18 10° W 22:04:23 23° SW 22:04:23 23° SW
STARLINK-1236 3.7 22:00:58 10° W 22:05:08 81° N 22:09:18 10° E
Cosmos 1908 3.1 22:01:48 10° N 22:05:38 88° E 22:07:21 31° S
STARLINK-1214 4.3 22:03:12 10° W 22:05:15 23° SW 22:05:15 23° SW
Nimbus 7 Rocket 4.5 21:59:46 10° NNE 22:05:53 81° ESE 22:10:04 21° SSW
Cosmos 1025 Rocket 3.9 22:02:58 17° SW 22:06:02 44° WNW 22:10:12 10° N
STARLINK-1198 3.6 22:03:42 10° WNW 22:07:47 60° SSW 22:10:32 20° SE
Meteor 2-19 Rocket 4.5 22:03:37 21° SSW 22:07:58 84° W 22:14:08 10° N
EXPRESS MD2 4.5 22:03:22 10° W 22:08:02 75° S 22:18:10 10° E
Cosmos 1953 3.2 22:04:58 10° NNW 22:08:43 38° W 22:10:41 23° SW
BREEZE M DEB (TANK) 3.4 22:07:24 10° W 22:08:33 22° WSW 22:08:33 22° WSW
Cosmos 1656 Rocket 3.8 22:04:50 13° SW 22:09:52 75° WNW 22:15:27 10° NNE
ATLAS 2AS CENTAUR R/B 3.1 22:02:09 10° SW 22:10:11 87° SE 22:18:07 10° NE
STARLINK-1199 3.6 22:08:42 10° WNW 22:12:47 57° SSW 22:15:20 21° SE
Landsat 4 4.4 22:11:08 10° NNE 22:14:38 39° E 22:16:01 28° SE
Cosmos 2292 Rocket 3.1 22:13:24 29° SSW 22:15:04 65° W 22:18:11 10° N
STARLINK-1269 3.6 22:10:57 10° W 22:15:07 84° N 22:19:17 10° E
STARLINK-1210 3.7 22:13:40 10° WNW 22:17:44 54° SSW 22:20:06 23° SE
FALCON 9 R/B 4.4 22:19:35 15° SE 22:19:35 15° SE 22:23:35 10° ESE
KORONAS-FOTON 3.7 22:17:21 32° S 22:19:03 80° E 22:22:55 10° NNE
Cosmos 1655 Rocket 4.5 22:15:01 16° SSW 22:20:00 55° WNW 22:26:12 10° N
STARLINK-1200 3.6 22:15:54 10° W 22:20:05 86° NNE 22:24:14 10° E
SL-4 R/B 2.3 22:20:18 22° W 22:20:18 22° W 22:21:58 10° NW
Cosmos 1777 Rocket 4.0 22:15:01 10° NNW 22:20:15 72° WSW 22:23:19 25° S
EO 1 Delta rocket 4.5 22:16:00 10° NNE 22:21:46 55° E 22:24:37 24° SSE
STARLINK-1219 3.8 22:18:39 10° WNW 22:22:41 51° SSW 22:24:52 24° SE
ATLAS 5 CENTAUR R/B 0.8 22:21:46 16° SW 22:24:16 87° NW 22:26:20 10° NE
STARLINK-1192 3.6 22:20:54 10° WNW 22:25:05 87° NNE 22:29:14 10° ESE
Cosmos 2228 3.1 22:22:20 10° NNW 22:26:33 65° W 22:28:36 29° S
Cosmos 1892 Rocket 3.8 22:25:06 28° SSE 22:27:15 60° E 22:31:34 10° NNE
STARLINK-52 3.0 22:26:28 38° SSW 22:27:19 52° SSE 22:30:28 10° ENE
Cosmos 1726 Rocket 3.5 22:23:00 10° NNW 22:27:20 77° W 22:29:30 29° S
STARLINK-1211 3.8 22:23:39 10° WNW 22:27:40 48° SSW 22:29:40 26° SSE
SL-4 R/B 2.3 22:24:22 10° WSW 22:29:11 70° SSE 22:33:59 10° E
STARLINK-1244 3.6 22:25:53 10° WNW 22:30:02 89° NNW 22:34:13 10° ESE
STARLINK-1320 4.4 22:31:42 22° ESE 22:31:42 22° ESE 22:33:30 10° E
STARLINK-1322 4.4 22:32:00 23° ESE 22:32:00 23° ESE 22:33:49 10° E
ERBS 3.6 22:28:13 10° WNW 22:31:24 42° NNE 22:34:37 10° E
STARLINK-1324 4.4 22:32:21 23° ESE 22:32:21 23° ESE 22:34:11 10° E
Cosmos 1300 3.0 22:27:53 10° N 22:31:41 59° ENE 22:33:33 27° SSE
STARLINK-1294 4.4 22:32:38 23° ESE 22:32:38 23° ESE 22:34:30 10° E
STARLINK-1261 4.3 22:32:57 23° ESE 22:32:57 23° ESE 22:34:50 10° E
STARLINK-1325 4.3 22:33:18 23° ESE 22:33:18 23° ESE 22:35:11 10° E
STARLINK-1245 3.9 22:28:38 10° WNW 22:32:37 46° SSW 22:34:26 27° SSE
STARLINK-1338 4.4 22:32:46 28° SE 22:32:47 28° SE 22:36:03 10° E
STARLINK-1333 4.3 22:33:40 23° ESE 22:33:40 23° ESE 22:35:34 10° E
STARLINK-1334 4.3 22:33:58 24° ESE 22:33:58 24° ESE 22:35:53 10° E
STARLINK-1326 4.3 22:34:18 24° ESE 22:34:18 24° ESE 22:36:14 10° E
Cosmos 921 Rocket 3.5 22:31:52 27° SSE 22:33:45 46° ESE 22:37:56 10° NNE
STARLINK-1323 4.3 22:34:36 24° ESE 22:34:36 24° ESE 22:36:33 10° E
YAOGAN 11 4.0 22:31:51 28° S 22:34:07 81° WSW 22:38:27 10° NNW
STARLINK-1349 4.3 22:34:57 24° ESE 22:34:57 24° ESE 22:36:54 10° E
STARLINK-1336 4.3 22:35:16 24° ESE 22:35:16 24° ESE 22:37:14 10° E
STARLINK-1331 4.2 22:35:35 24° ESE 22:35:35 24° ESE 22:37:35 10° E
STARLINK-1138 3.5 22:30:52 10° WNW 22:35:02 89° S 22:39:12 10° ESE
STARLINK-1344 4.2 22:35:54 25° ESE 22:35:54 25° ESE 22:37:54 10° E
STARLINK-1343 4.2 22:36:13 25° ESE 22:36:13 25° ESE 22:38:15 10° E
STARLINK-1346 4.2 22:36:30 25° SE 22:36:30 25° SE 22:38:38 10° E
Meteor 1-24 Rocket 3.9 22:33:05 24° SSE 22:36:12 60° E 22:41:38 10° NNE
STARLINK-1328 4.2 22:36:54 25° ESE 22:36:54 25° ESE 22:38:57 10° E
STARLINK-1354 4.2 22:37:13 25° ESE 22:37:13 25° ESE 22:39:17 10° E
STARLINK-1347 4.2 22:37:33 25° ESE 22:37:33 25° ESE 22:39:37 10° E
STARLINK-1357 4.2 22:37:53 26° SE 22:37:53 26° SE 22:39:58 10° E
STARLINK-1233 4.0 22:33:36 10° WNW 22:37:33 43° SSW 22:39:11 28° SSE
STARLINK-1335 4.1 22:38:12 26° SE 22:38:12 26° SE 22:40:19 10° E
STARLINK-1327 4.1 22:38:31 26° SE 22:38:31 26° SE 22:40:38 10° E
STARLINK-1340 4.1 22:38:51 26° SE 22:38:51 26° SE 22:41:00 10° E
Cosmos 2266 Rocket 4.4 22:33:43 17° SSW 22:38:16 54° WNW 22:44:12 10° N
CZ-4C R/B 3.9 22:36:20 13° SE 22:38:23 16° ESE 22:41:38 10° ENE
STARLINK-1356 4.1 22:39:10 26° SE 22:39:10 26° SE 22:41:20 10° E
STARLINK-1345 4.1 22:39:28 27° SE 22:39:28 27° SE 22:41:38 10° E
STARLINK-1355 4.1 22:39:47 27° SE 22:39:47 27° SE 22:41:58 10° E
STARLINK-1371 4.2 22:39:09 30° SSE 22:39:22 30° SE 22:42:42 10° E
STARLINK-1321 4.1 22:40:09 27° SE 22:40:09 27° SE 22:42:21 10° E
STARLINK-1358 4.0 22:40:29 27° SE 22:40:29 27° SE 22:42:41 10° E
STARLINK-1143 3.5 22:35:49 10° WNW 22:39:59 86° SSW 22:44:09 10° ESE
STARLINK-1332 4.0 22:40:48 27° SE 22:40:48 27° SE 22:43:01 10° E
STARLINK-1348 4.0 22:41:05 27° SE 22:41:05 27° SE 22:43:19 10° E
STARLINK-1330 4.0 22:41:27 28° SE 22:41:27 28° SE 22:43:42 10° E
Cosmos 1437 3.6 22:40:11 29° SE 22:40:56 33° E 22:43:42 10° NNE
STARLINK-1363 4.0 22:41:47 28° SE 22:41:47 28° SE 22:44:03 10° E
STARLINK-1337 4.0 22:42:06 28° SE 22:42:06 28° SE 22:44:24 10° E
Resurs 1-4 Rocket 4.4 22:39:33 10° ENE 22:41:45 12° E 22:43:57 10° ESE
STARLINK-1342 4.0 22:42:25 28° SE 22:42:25 28° SE 22:44:43 10° E
STARLINK-1364 4.0 22:42:45 28° SE 22:42:45 28° SE 22:45:04 10° E
STARLINK-1204 4.0 22:38:36 10° W 22:42:31 41° SSW 22:43:59 29° SSE
STARLINK-1376 3.9 22:43:04 29° SE 22:43:04 29° SE 22:45:24 10° E
STARLINK-1341 4.1 22:42:21 31° SSE 22:42:40 31° SE 22:46:03 10° E
STARLINK-1360 3.9 22:43:23 29° SE 22:43:23 29° SE 22:45:45 10° E
STARLINK-1361 3.9 22:43:43 29° SE 22:43:43 29° SE 22:46:05 10° E
SJ 16-02 2.2 22:39:14 10° NNW 22:43:32 46° ENE 22:47:11 14° SE
STARLINK-1367 3.9 22:44:00 30° SE 22:44:00 30° SE 22:46:27 10° E
STARLINK-1366 3.9 22:44:23 29° SE 22:44:23 29° SE 22:46:46 10° E
STARLINK-1241 3.5 22:40:51 10° WNW 22:45:00 84° SSW 22:49:10 10° ESE
STARLINK-1339 4.0 22:45:37 31° SSE 22:45:49 31° SSE 22:49:03 10° E
STARLINK-1374 4.1 22:45:33 32° SSE 22:45:59 33° SSE 22:49:24 10° E
STARLINK-1238 4.1 22:43:37 10° W 22:47:29 38° SSW 22:48:48 30° S
Helios 1B rocket 3.1 22:44:13 10° NNE 22:48:12 44° E 22:50:09 26° SSE
STARLINK-1239 3.5 22:45:49 10° WNW 22:49:58 81° SSW 22:54:08 10° ESE
Cosmos 1674 3.5 22:48:20 23° SW 22:50:17 43° WNW 22:53:56 10° N
STARLINK-1201 4.2 22:48:37 10° W 22:52:26 36° SSW 22:53:33 30° S
STARLINK-1377 4.0 22:52:00 33° S 22:52:41 36° SSE 22:56:11 10° E
STARLINK-1240 3.5 22:50:47 10° WNW 22:54:56 78° SSW 22:59:05 10° ESE
Cosmos 1244 Rocket 4.5 22:51:03 23° S 22:55:08 90° W 23:01:20 10° N
CZ-2D R/B 4.3 22:52:37 10° NE 22:55:39 15° E 22:58:40 10° ESE
STARLINK-1353 3.9 22:55:17 33° S 22:56:05 37° SSE 22:59:36 10° E
USA 215 3.6 22:52:57 19° SSE 22:57:20 43° SW 23:03:33 10° WNW
STARLINK-1206 4.3 22:53:38 10° W 22:57:24 34° SW 22:58:21 30° S
STARLINK-60 2.9 22:54:29 10° W 22:57:41 81° N 23:00:52 10° E
Cosmos 2219 3.1 22:52:33 10° NNW 22:58:15 79° WSW 23:02:17 20° SSE
COSMOS 2455 3.2 22:52:50 11° SW 22:58:41 65° NW 23:04:43 10° NE
STARLINK-1375 3.9 22:58:33 33° S 22:59:29 39° SSE 23:03:01 10° E
Cosmos 1745 Rocket 4.3 22:55:32 20° SSE 22:59:40 56° E 23:05:39 10° NNE
STARLINK-1216 3.5 22:55:45 10° WNW 22:59:54 76° SSW 23:04:02 10° ESE
STARLINK-1203 3.5 22:55:50 10° WNW 23:00:02 76° SSW 23:04:14 10° ESE
GEOS 3 Rocket 4.2 22:56:00 10° ESE 23:01:08 59° NE 23:06:22 10° NW
STARLINK-1205 4.4 22:58:37 10° W 23:02:20 32° SW 23:03:07 29° SSW
Cosmos 2297 Rocket 2.2 22:56:51 10° NNW 23:02:33 86° WSW 23:07:00 17° SSE
STARLINK-1352 3.8 23:01:56 34° S 23:02:44 39° SSE 23:06:09 10° E
STARLINK-1350 3.8 23:01:49 32° S 23:02:52 41° SSE 23:06:26 10° E
Helios 1A 4.0 23:01:35 23° SW 23:03:24 33° W 23:07:13 10° NNW
STARLINK-1237 3.5 23:00:44 10° WNW 23:04:52 73° SSW 23:09:01 10° ESE
PSLV R/B 3.8 23:00:58 10° NNE 23:05:31 67° ESE 23:07:53 26° S
Cosmos 2263 Rocket 4.5 23:01:33 10° NNW 23:06:05 24° NE 23:10:35 10° E
Lacrosse 4 Rocket 2.3 23:02:16 10° NNW 23:06:33 50° NE 23:10:41 10° SE
STARLINK-1218 4.4 23:03:39 10° W 23:07:18 30° SW 23:07:55 29° SSW
STARLINK-1368 3.7 23:08:27 31° SSW 23:09:45 44° SSE 23:13:23 10° E
Cosmos 2058 Rocket 3.6 23:05:30 10° NNW 23:09:45 46° W 23:11:58 25° SSW
ALOS 2 4.4 23:07:47 15° SW 23:09:49 19° W 23:13:00 10° NW
STARLINK-1202 3.5 23:05:43 10° WNW 23:09:51 70° SSW 23:13:59 10° ESE
Cosmos 1455 3.5 23:06:39 10° N 23:10:08 35° ENE 23:12:54 14° SE
Meteor 2-10 Rocket 4.1 23:05:12 10° N 23:10:21 52° ENE 23:14:39 14° SE
Cosmos 1937 Rocket 4.1 23:06:57 10° NNW 23:12:08 57° ENE 23:17:20 10° SE
Meteor 1-29 3.5 23:09:09 10° NNE 23:12:26 47° E 23:13:48 29° SSE
Cosmos 2082 4.1 23:06:47 10° NNW 23:12:27 65° NE 23:18:02 10° SE
Cosmos 1898 Rocket 3.7 23:07:34 10° NNW 23:12:58 74° ENE 23:17:36 14° SSE
STARLINK-1369 3.7 23:11:47 30° SSW 23:13:13 46° SSE 23:16:52 10° ENE
Cosmos 1626 Rocket 3.7 23:11:50 25° S 23:14:12 64° E 23:18:32 10° NNE
STARLINK-1372 3.6 23:15:07 29° SSW 23:16:42 48° SSE 23:20:22 10° ENE
Meteor 2-5 Rocket 4.2 23:14:12 19° SW 23:18:03 54° WNW 23:23:37 10° N
Starlink 7 placeholder 2.2 23:17:57 58° NNW 23:18:04 60° N 23:20:02 10° E
ATLAS 3B R/B 3.8 23:12:42 10° WNW 23:18:04 25° WSW 23:21:09 19° SSW
SeaSat 1 4.1 23:14:11 10° NNE 23:18:30 31° NW 23:22:48 10° WSW
STARLINK-1246 3.5 23:15:42 10° WNW 23:19:48 64° SSW 23:23:55 10° ESE
STARLINK-1378 3.6 23:18:28 28° SW 23:20:10 50° SSE 23:23:52 10° ENE
SL-14 R/B 3.6 23:19:11 26° SW 23:21:08 53° WNW 23:24:55 10° N
FALCON 9 DEB 3.0 23:20:07 16° WSW 23:22:43 78° SSE 23:26:10 10° ENE
IRAS Rocket 4.3 23:18:19 16° SSE 23:22:49 84° ENE 23:28:23 10° NNW
STARLINK-1379 3.5 23:21:51 26° SW 23:23:41 52° SSE 23:27:24 10° ENE
STARLINK-1224 3.6 23:20:40 10° WNW 23:24:46 61° SSW 23:28:51 10° SE
STARLINK-1329 3.5 23:23:14 26° SW 23:25:07 53° SSE 23:28:52 10° ENE
SL-16 R/B 3.2 23:20:19 10° SE 23:26:16 53° ENE 23:32:15 10° N
STARLINK-29 2.9 23:24:20 10° W 23:27:34 83° N 23:30:47 10° ENE
STARLINK-1362 3.5 23:26:40 24° SW 23:28:42 56° SSE 23:32:27 10° ENE
Cosmos-2242 4.0 23:24:41 10° N 23:28:46 42° ENE 23:32:30 12° SE
ATLAS CENTAUR R/B 1.7 23:26:56 10° WNW 23:29:15 40° SSW 23:33:38 10° SE
STARLINK-1225 3.6 23:25:40 10° WNW 23:29:45 58° SSW 23:33:49 10° SE
Cosmos 1656 3.9 23:27:52 22° S 23:31:29 60° ESE 23:37:00 10° NE
STARLINK-1373 3.4 23:30:05 23° SW 23:32:15 58° SSE 23:36:03 10° ENE
NOSS 3-4 (A) 4.5 23:26:59 10° WSW 23:32:52 47° NNW 23:39:16 10° NE
NOSS 3-4 (C) 4.5 23:27:05 10° WSW 23:32:58 47° NNW 23:39:23 10° NE
Cosmos 2084 Rocket 4.4 23:28:38 10° NW 23:33:00 53° NE 23:37:24 10° ESE
RESURS DK-1 3.3 23:29:48 14° WSW 23:33:03 42° NW 23:37:01 10° NNE
STARLINK-1365 3.4 23:31:11 22° SW 23:33:30 60° SSE 23:37:17 10° ENE
Cosmos 1386 Rocket 4.5 23:29:51 21° S 23:34:09 87° E 23:40:26 10° N
STARLINK-1230 3.6 23:30:39 10° WNW 23:34:42 55° SSW 23:38:45 10° SE
STARLINK-1390 3.4 23:33:34 22° SW 23:35:52 60° SSE 23:39:39 10° ENE
Cosmos 1812 Rocket 3.5 23:31:37 10° NNW 23:36:06 79° W 23:38:55 22° S
Cosmos 1697 Rocket 3.5 23:32:47 18° SSE 23:36:29 39° ESE 23:41:43 10° NE
SL-19 R/B 4.5 23:31:43 10° NNE 23:37:12 65° ESE 23:41:19 19° S
Cosmos 2084 3.8 23:33:36 14° WSW 23:37:19 66° NW 23:41:48 10° NE
Cosmos 1626 3.3 23:36:00 19° SW 23:38:01 33° WNW 23:41:26 10° N
BREEZE-M R/B 3.3 23:32:55 10° WSW 23:38:43 45° SSE 23:41:54 10° E
DELTA 2 DEB (DPAF) 4.2 23:35:37 17° SSE 23:39:05 78° ENE 23:43:35 10° NNW
Cosmos 990 Rocket 4.0 23:33:54 10° NNW 23:39:10 70° WSW 23:43:10 17° SSE
Cosmos 2227 Rocket 2.4 23:33:48 10° NW 23:39:22 57° WSW 23:43:29 18° S
STARLINK-1243 3.7 23:35:39 10° WNW 23:39:41 52° SSW 23:43:43 10° SE
CZ-4 R/B 4.2 23:35:59 10° N 23:40:42 58° WNW 23:43:50 20° SW
ATLAS CENTAUR R/B 3.2 23:37:38 10° W 23:41:20 29° NNW 23:44:51 10° NNE
STARLINK-1236 3.8 23:40:37 10° WNW 23:44:38 49° SSW 23:48:38 10° SE
USA 81 4.2 23:42:28 19° S 23:46:19 71° E 23:51:36 10° N
Alouette 2 Rocket 3.9 23:41:28 10° NNW 23:47:27 85° ENE 23:50:43 17° SSE
Cosmos 1825 Rocket 4.3 23:44:53 17° SSE 23:47:57 45° E 23:52:06 10° NNE
Cosmos 1709 Rocket 4.1 23:44:10 18° S 23:48:53 71° E 23:55:01 10° NNE
Cosmos 1602 Rocket 3.5 23:47:23 23° SSW 23:50:01 75° W 23:54:22 10° N
SL-08 ROCKET BODY 4.4 23:46:46 20° SSW 23:50:56 70° WNW 23:56:47 10° N
Cosmos 2285 Rocket 4.0 23:46:37 10° NNW 23:53:03 89° WSW 23:59:23 10° SSE
STARLINK-1269 3.9 23:50:36 10° WNW 23:54:34 44° SSW 23:58:30 10° SE
